Content
SEND FEEDBACK

Daily
Averages
Monthly
Summary
United States of America

NEW YORK - CENTRAL PARK, NEW YORK


Home > North America > United States > New York
Elevation: 14 feet     Latitude: 40 47N     Longitude: 073 58W

WEATHER
 
SELECT A DAY
Number of Records: 151,169;   Date Range: 11/1/95 - 10/20/14
 
SHARE

PRINT THIS DATA

[ ← Previous Day ]
WEATHER ALMANAC - NOVEMBER 21, 2013
[ Next Day → ]
[ °C ]   °F
Weather ElementAverageHighLow
Temperature46 °F51.8 °F (9:46 pm)35.1 °F (3:51 am)
Dewpoint31.6 °F39.9 °F (8:03 pm)19 °F (1:51 am)
Humidity57.3 %68 % (8:03 pm)46 % (11:51 am)
Barometer30.52 in30.61 in (1:51 am)30.40 in (11:51 pm)
Wind Speed4.6 mph9.2 mph (7:51 am)
Weather ElementAverage
Visibility10 mi
Wind DirectionENE (68.5 °)

Weather ElementTotal
Precipitation---
Heating Degree Days21.6 (Base 65)
Averaged from 27 records on November 21, 2013
WEATHER CONDITIONS BREAKOUT
WIND DIRECTION BREAKOUT
WEATHER BY HOUR - NOVEMBER 21, 2013
[ °C ]   °F
Local TimeTemperatureDewpointHumidityBarometerVisibilityWind DirectionWind SpeedGust SpeedPrecipitationEventsConditions
1:51 AM37.0 °F19.0 °F48 %30.61 in10.0 miNNE (20°)4.6 mphClear
2:51 AM36.0 °F19.0 °F50 %30.61 in10.0 miNorth (360°)3.5 mphClear
3:51 AM35.1 °F21.0 °F57 %30.61 in10.0 miCalmClear
4:51 AM36.0 °F21.0 °F55 %30.61 in10.0 miNE (40°)4.6 mphClear
5:51 AM37.0 °F19.0 °F48 %30.61 in10.0 miNNE (30°)3.5 mphOvercast
6:51 AM37.0 °F19.9 °F50 %30.61 in10.0 miNE (40°)5.8 mphScattered Clouds
7:51 AM37.9 °F24.1 °F57 %30.60 in10.0 miENE (60°)9.2 mphClear
8:51 AM41.0 °F26.1 °F55 %30.61 in10.0 miENE (70°)9.2 mphClear
9:51 AM44.1 °F28.9 °F55 %30.60 in10.0 miEast (90°)4.6 mphClear
10:51 AM46.9 °F28.9 °F50 %30.59 in10.0 miEast (90°)5.8 mphClear
11:51 AM48.9 °F28.9 °F46 %30.55 in10.0 miVariable5.8 mphClear
12:51 PM51.1 °F30.9 °F46 %30.51 in10.0 miVariable4.6 mphClear
1:51 PM51.1 °F33.1 °F50 %30.49 in10.0 miSouth (170°)6.9 mphMostly Cloudy
2:51 PM50.0 °F34.0 °F54 %30.48 in10.0 miVariable3.5 mphOvercast
3:51 PM48.9 °F35.1 °F59 %30.47 in10.0 miVariable5.8 mphOvercast
4:51 PM48.9 °F36.0 °F61 %30.47 in10.0 miVariable4.6 mphOvercast
5:51 PM50.0 °F37.9 °F63 %30.47 in10.0 miVariable4.6 mphOvercast
6:44 PM50.0 °F37.9 °F63 %30.48 in10.0 miCalmOvercast
6:51 PM50.0 °F37.9 °F63 %30.45 in10.0 miVariable4.6 mphOvercast
7:31 PM50.0 °F39.0 °F66 %30.47 in10.0 miSouth (180°)4.6 mphOvercast
7:51 PM50.0 °F39.0 °F66 %30.45 in10.0 miNorthOvercast
8:03 PM50.0 °F39.9 °F68 %30.47 in10.0 miSouth (190°)5.8 mphOvercast
8:51 PM51.1 °F39.9 °F66 %30.43 in10.0 miVariable3.5 mphOvercast
9:09 PM51.1 °F39.9 °F66 %30.45 in10.0 miVariable3.5 mphOvercast
9:46 PM51.8 °F39.2 °F62 %30.44 in10.0 miCalmOvercast
10:51 PM51.1 °F37.9 °F61 %30.41 in10.0 miWSW (250°)8.1 mphOvercast
11:51 PM51.1 °F39.0 °F63 %30.40 in10.0 miWest (260°)3.5 mphOvercast
Hourly data recorded from KNYC, located miles away from New York - Central Park, New York







STORIES FROM OUR PARTNERS